NOAA 16 DEB, 41076

Orbit data source: Space-Track

NOAA 16 DEB, 41076 is space debris in SSO originally from a launch on Thu, 21 Sep 2000 UTC launched from the Air Force Western Test Range (AFWTR). Debris objects in space refer to the collection of defunct objects orbiting the Earth. Examples of debris include non-operational satellites, rocket bodies, and fragments generated from explosions, collisions, or faulty payload assembly.

Loading next visibility...
Identifier
41076, 2000-055AK
Orbit
SSO
Country
Flag of USUS
Related business
Manufacturer
Unknown
Mission
Spacecraft
Bus & Motor
Unknown
Mass
Unknown
Launch date (UTC)
2000-09-21 (25 years ago)
Launch vehicle
Unknown
Launch site
Air Force Western Test Range (AFWTR)
Object type
Payload
Rocket body
Debris
Shape & HBR
Unknown
Radar Cross Section
Small (<0.1 m²)

Expand to show TLE details & history
Last TLE update: 23 hours ago

TLE from 23 hours ago
0 NOAA 16 DEB
1 41076U 00055AK  25242.04670481  .00044467  00000-0  22068-2 0  9998
2 41076  99.1957  54.9163 0079621  15.6493 344.7168 15.14767113521435
Epoch: 2025-08-30T01:07Z
TLE epoch observation values (Epoch: 2025-08-30T01:07:15.295Z)
Latitude
0.00001°
Longitude
59.61595°
Altitude
471.737 km
Speed
7.659 km/s
True Right ascension
03h 39m 39s
True Declination
0° 00' 00"
Sunlit
Object was in daylight at epoch
Visualization orbit readout
Latitude
Unknown
Longitude
Unknown
Altitude
Unknown
Speed
Unknown
Apparent Right ascension
Unknown
Apparent Declination
Unknown
Sunlit
N/A
Visualization observer readout
Local Sidereal Time
15:42:34
Azimuth
Unknown
Elevation
Unknown
Doppler factor
Unknown
Orbital elements
Apogee altitude
573.657 km
Perigee altitude
463.83 km
Semi-major axis
6,896.881 km
Eccentricity
0.00796
Inclination
99.1957°
RAAN
54.9163°
Arg. of periapsis
15.6493°
True anomaly
344.47397°
Mean anomaly
344.7168°
Eccentric anomaly
344.59562°
Mean motion
3.78934 °/min
Orbital period
95 mins
BSTAR
0.0022068
Loading maneuver chart data...
Computing Atmospheric mass density...
Loading historical data...
Loading historical data...
Loading historical data...
Loading historical data...
Loading historical data...
Loading historical data...
Loading historical data...

Documentation

Showing up to 5 results
|